Time,TemperatureF,DewpointF,PressureIn,WindDirection,WindDirectionDegrees,WindSpeedMPH,WindSpeedGustMPH,Humidity,HourlyPrecipIn,Conditions,Clouds,dailyrainin,SoftwareType,DateUTC
2013-07-19 00:03:00,75.0,70.5,29.86,South,184,2.0,2.0,86,0.00,,,0.00,Wunderground v.1.15,2013-07-19 05:03:00,
2013-07-19 00:09:00,74.9,70.4,29.86,South,187,2.0,2.0,86,0.00,,,0.00,Wunderground v.1.15,2013-07-19 05:09:00,
2013-07-19 00:15:00,74.9,70.4,29.86,South,189,2.0,3.0,86,0.00,,,0.00,Wunderground v.1.15,2013-07-19 05:15:00,
2013-07-19 00:22:00,74.7,70.2,29.86,South,189,1.0,2.0,86,0.00,,,0.00,Wunderground v.1.15,2013-07-19 05:22:00,
2013-07-19 00:28:00,74.6,70.1,29.86,South,189,1.0,2.0,86,0.00,,,0.00,Wunderground v.1.15,2013-07-19 05:28:00,
2013-07-19 00:34:00,74.4,69.9,29.86,SSW,194,3.0,3.0,86,0.00,,,0.00,Wunderground v.1.15,2013-07-19 05:34:00,
2013-07-19 00:40:00,74.4,69.9,29.85,South,188,2.0,3.0,86,0.00,,,0.00,Wunderground v.1.15,2013-07-19 05:40:00,
2013-07-19 00:46:00,74.2,69.7,29.85,South,180,2.0,3.0,86,0.00,,,0.00,Wunderground v.1.15,2013-07-19 05:46:00,
2013-07-19 00:52:00,74.2,69.7,29.85,South,186,3.0,3.0,86,0.00,,,0.00,Wunderground v.1.15,2013-07-19 05:52:00,
2013-07-19 00:58:00,74.1,69.6,29.85,South,186,3.0,3.0,86,0.00,,,0.00,Wunderground v.1.15,2013-07-19 05:58:00,
2013-07-19 01:03:00,74.0,69.5,29.85,South,186,2.0,2.0,86,0.00,,,0.00,Wunderground v.1.15,2013-07-19 06:03:00,
2013-07-19 01:09:00,73.9,69.4,29.85,South,186,2.0,2.0,86,0.00,,,0.00,Wunderground v.1.15,2013-07-19 06:09:00,
2013-07-19 01:14:00,73.8,69.3,29.85,SSW,196,3.0,3.0,86,0.00,,,0.00,Wunderground v.1.15,2013-07-19 06:14:00,
2013-07-19 01:20:00,73.7,69.6,29.84,SSW,195,3.0,4.0,87,0.00,,,0.00,Wunderground v.1.15,2013-07-19 06:20:00,
2013-07-19 01:25:00,73.7,69.6,29.84,South,184,3.0,4.0,87,0.00,,,0.00,Wunderground v.1.15,2013-07-19 06:25:00,
2013-07-19 01:32:00,73.7,69.6,29.84,South,184,4.0,4.0,87,0.00,,,0.00,Wunderground v.1.15,2013-07-19 06:32:00,
2013-07-19 01:38:00,73.7,69.2,29.84,South,188,2.0,4.0,86,0.00,,,0.00,Wunderground v.1.15,2013-07-19 06:38:00,
2013-07-19 01:43:00,73.7,69.2,29.84,South,188,3.0,3.0,86,0.00,,,0.00,Wunderground v.1.15,2013-07-19 06:43:00,
2013-07-19 01:49:00,73.7,69.2,29.83,South,188,3.0,4.0,86,0.00,,,0.00,Wunderground v.1.15,2013-07-19 06:49:00,
2013-07-19 01:54:00,73.7,69.2,29.83,South,191,4.0,4.0,86,0.00,,,0.00,Wunderground v.1.15,2013-07-19 06:54:00,
2013-07-19 02:00:00,73.6,69.2,29.83,SSW,192,3.0,3.0,86,0.00,,,0.00,Wunderground v.1.15,2013-07-19 07:00:00,
2013-07-19 02:05:00,73.6,69.2,29.83,South,188,3.0,5.0,86,0.00,,,0.00,Wunderground v.1.15,2013-07-19 07:05:00,
2013-07-19 02:10:00,73.7,69.2,29.83,South,190,2.0,5.0,86,0.00,,,0.00,Wunderground v.1.15,2013-07-19 07:10:00,
2013-07-19 02:15:00,73.7,69.2,29.83,South,178,4.0,4.0,86,0.00,,,0.00,Wunderground v.1.15,2013-07-19 07:15:00,
2013-07-19 02:20:00,73.8,69.0,29.83,SSW,192,3.0,5.0,85,0.00,,,0.00,Wunderground v.1.15,2013-07-19 07:20:00,
2013-07-19 02:25:00,74.0,69.2,29.83,South,190,4.0,5.0,85,0.00,,,0.00,Wunderground v.1.15,2013-07-19 07:25:00,
2013-07-19 02:30:00,74.0,69.2,29.83,South,184,3.0,6.0,85,0.00,,,0.00,Wunderground v.1.15,2013-07-19 07:30:00,
2013-07-19 02:35:00,74.1,69.0,29.83,SSW,198,5.0,7.0,84,0.00,,,0.00,Wunderground v.1.15,2013-07-19 07:35:00,
2013-07-19 02:40:00,74.1,69.0,29.83,SSW,192,3.0,7.0,84,0.00,,,0.00,Wunderground v.1.15,2013-07-19 07:40:00,
2013-07-19 02:45:00,74.1,69.0,29.82,SSW,208,3.0,6.0,84,0.00,,,0.00,Wunderground v.1.15,2013-07-19 07:45:00,
2013-07-19 02:50:00,74.1,69.0,29.82,South,188,4.0,6.0,84,0.00,,,0.00,Wunderground v.1.15,2013-07-19 07:50:00,
2013-07-19 02:55:00,74.2,69.1,29.82,SSW,205,3.0,5.0,84,0.00,,,0.00,Wunderground v.1.15,2013-07-19 07:55:00,
2013-07-19 03:00:00,74.2,69.1,29.82,SSW,209,5.0,5.0,84,0.00,,,0.00,Wunderground v.1.15,2013-07-19 08:00:00,
2013-07-19 03:05:00,74.5,69.0,29.82,SSW,198,4.0,7.0,83,0.00,,,0.00,Wunderground v.1.15,2013-07-19 08:05:00,
2013-07-19 03:10:00,74.7,69.2,29.81,SSW,199,5.0,6.0,83,0.00,,,0.00,Wunderground v.1.15,2013-07-19 08:10:00,
2013-07-19 03:15:00,74.8,68.9,29.82,SSW,199,4.0,6.0,82,0.00,,,0.00,Wunderground v.1.15,2013-07-19 08:15:00,
2013-07-19 03:20:00,74.9,69.0,29.82,SSW,200,4.0,7.0,82,0.00,,,0.00,Wunderground v.1.15,2013-07-19 08:20:00,
2013-07-19 03:25:00,75.0,68.8,29.82,SSW,212,5.0,6.0,81,0.00,,,0.00,Wunderground v.1.15,2013-07-19 08:25:00,
2013-07-19 03:30:00,75.1,68.9,29.81,South,184,5.0,7.0,81,0.00,,,0.00,Wunderground v.1.15,2013-07-19 08:30:00,
2013-07-19 03:35:00,75.2,69.0,29.81,SSW,203,5.0,9.0,81,0.00,,,0.00,Wunderground v.1.15,2013-07-19 08:35:00,
2013-07-19 03:40:00,75.4,69.2,29.81,SSW,199,6.0,9.0,81,0.00,,,0.00,Wunderground v.1.15,2013-07-19 08:40:00,
2013-07-19 03:45:00,75.6,69.0,29.81,SSW,192,5.0,9.0,80,0.00,,,0.00,Wunderground v.1.15,2013-07-19 08:45:00,
2013-07-19 03:50:00,75.7,69.1,29.81,SW,217,8.0,9.0,80,0.00,,,0.00,Wunderground v.1.15,2013-07-19 08:50:00,
2013-07-19 03:55:00,75.8,69.2,29.80,SSW,207,5.0,8.0,80,0.00,,,0.00,Wunderground v.1.15,2013-07-19 08:55:00,
2013-07-19 04:00:00,75.7,69.1,29.80,South,180,5.0,6.0,80,0.00,,,0.00,Wunderground v.1.15,2013-07-19 09:00:00,
2013-07-19 04:05:00,75.7,69.1,29.80,SW,215,6.0,9.0,80,0.00,,,0.00,Wunderground v.1.15,2013-07-19 09:05:00,
2013-07-19 04:10:00,75.7,69.1,29.80,SSW,202,6.0,11.0,80,0.00,,,0.00,Wunderground v.1.15,2013-07-19 09:10:00,
2013-07-19 04:15:00,75.6,69.0,29.80,SSW,205,7.0,12.0,80,0.00,,,0.00,Wunderground v.1.15,2013-07-19 09:15:00,
2013-07-19 04:20:00,75.7,69.1,29.80,SW,216,6.0,12.0,80,0.00,,,0.00,Wunderground v.1.15,2013-07-19 09:20:00,
2013-07-19 04:25:00,75.7,69.1,29.80,SSW,208,8.0,9.0,80,0.00,,,0.00,Wunderground v.1.15,2013-07-19 09:25:00,
2013-07-19 04:30:00,75.6,69.0,29.79,SSW,198,6.0,9.0,80,0.00,,,0.00,Wunderground v.1.15,2013-07-19 09:30:00,
2013-07-19 04:35:00,75.5,68.9,29.79,SSW,196,6.0,9.0,80,0.00,,,0.00,Wunderground v.1.15,2013-07-19 09:35:00,
2013-07-19 04:40:00,75.5,68.9,29.79,SW,214,8.0,11.0,80,0.00,,,0.00,Wunderground v.1.15,2013-07-19 09:40:00,
2013-07-19 04:46:00,75.5,68.9,29.79,SSW,211,9.0,11.0,80,0.00,,,0.00,Wunderground v.1.15,2013-07-19 09:46:00,
2013-07-19 04:51:00,75.6,69.0,29.79,SW,215,8.0,12.0,80,0.00,,,0.00,Wunderground v.1.15,2013-07-19 09:51:00,
2013-07-19 04:56:00,75.5,68.9,29.79,SW,216,4.0,10.0,80,0.00,,,0.00,Wunderground v.1.15,2013-07-19 09:56:00,
2013-07-19 05:02:00,75.3,69.1,29.79,South,188,4.0,4.0,81,0.00,,,0.00,Wunderground v.1.15,2013-07-19 10:02:00,
2013-07-19 05:08:00,75.1,68.9,29.79,SSW,197,5.0,9.0,81,0.00,,,0.00,Wunderground v.1.15,2013-07-19 10:08:00,
2013-07-19 05:13:00,75.0,68.8,29.79,SW,225,4.0,6.0,81,0.00,,,0.00,Wunderground v.1.15,2013-07-19 10:13:00,
2013-07-19 05:18:00,74.9,69.0,29.79,SSW,201,6.0,8.0,82,0.00,,,0.00,Wunderground v.1.15,2013-07-19 10:18:00,
2013-07-19 05:23:00,74.8,68.9,29.79,SSW,209,6.0,7.0,82,0.00,,,0.00,Wunderground v.1.15,2013-07-19 10:23:00,
2013-07-19 05:28:00,74.6,68.7,29.79,SW,215,6.0,8.0,82,0.00,,,0.00,Wunderground v.1.15,2013-07-19 10:28:00,
2013-07-19 05:33:00,74.4,68.9,29.80,SW,219,6.0,6.0,83,0.00,,,0.00,Wunderground v.1.15,2013-07-19 10:33:00,
2013-07-19 05:38:00,74.3,68.8,29.80,SSW,200,5.0,8.0,83,0.00,,,0.00,Wunderground v.1.15,2013-07-19 10:38:00,
2013-07-19 05:43:00,74.2,68.7,29.80,SSW,207,4.0,5.0,83,0.00,,,0.00,Wunderground v.1.15,2013-07-19 10:43:00,
2013-07-19 05:48:00,74.0,68.9,29.80,SSW,202,4.0,6.0,84,0.00,,,0.00,Wunderground v.1.15,2013-07-19 10:48:00,
2013-07-19 05:53:00,73.9,68.8,29.80,SSW,208,3.0,5.0,84,0.00,,,0.00,Wunderground v.1.15,2013-07-19 10:53:00,
2013-07-19 05:58:00,73.8,68.7,29.80,SSW,211,3.0,6.0,84,0.00,,,0.00,Wunderground v.1.15,2013-07-19 10:58:00,
2013-07-19 06:03:00,73.6,68.5,29.80,South,182,4.0,5.0,84,0.00,,,0.00,Wunderground v.1.15,2013-07-19 11:03:00,
2013-07-19 06:08:00,73.5,68.7,29.80,South,175,5.0,6.0,85,0.00,,,0.00,Wunderground v.1.15,2013-07-19 11:08:00,
2013-07-19 06:13:00,73.4,68.6,29.81,SSW,211,4.0,5.0,85,0.00,,,0.00,Wunderground v.1.15,2013-07-19 11:13:00,
2013-07-19 06:18:00,73.4,68.6,29.80,SSW,198,4.0,5.0,85,0.00,,,0.00,Wunderground v.1.15,2013-07-19 11:18:00,
2013-07-19 06:23:00,73.5,69.1,29.80,South,190,4.0,5.0,86,0.00,,,0.00,Wunderground v.1.15,2013-07-19 11:23:00,
2013-07-19 06:28:00,73.5,69.1,29.81,SSW,198,5.0,7.0,86,0.00,,,0.00,Wunderground v.1.15,2013-07-19 11:28:00,
2013-07-19 06:33:00,73.6,69.2,29.81,SSW,199,4.0,6.0,86,0.00,,,0.00,Wunderground v.1.15,2013-07-19 11:33:00,
2013-07-19 06:38:00,73.8,69.0,29.81,SW,214,3.0,7.0,85,0.00,,,0.00,Wunderground v.1.15,2013-07-19 11:38:00,
2013-07-19 06:43:00,74.0,69.2,29.81,SSW,195,4.0,6.0,85,0.00,,,0.00,Wunderground v.1.15,2013-07-19 11:43:00,
2013-07-19 06:48:00,74.4,69.2,29.80,SW,214,5.0,7.0,84,0.00,,,0.00,Wunderground v.1.15,2013-07-19 11:48:00,
2013-07-19 06:53:00,74.7,69.5,29.80,SSW,210,8.0,9.0,84,0.00,,,0.00,Wunderground v.1.15,2013-07-19 11:53:00,
2013-07-19 06:58:00,75.1,69.6,29.80,SSW,210,7.0,9.0,83,0.00,,,0.00,Wunderground v.1.15,2013-07-19 11:58:00,
2013-07-19 07:03:00,75.4,69.9,29.80,SSW,193,6.0,9.0,83,0.00,,,0.00,Wunderground v.1.15,2013-07-19 12:03:00,
2013-07-19 07:08:00,75.8,69.9,29.80,SW,227,8.0,11.0,82,0.00,,,0.00,Wunderground v.1.15,2013-07-19 12:08:00,
2013-07-19 07:13:00,76.1,70.2,29.80,SW,218,4.0,7.0,82,0.00,,,0.00,Wunderground v.1.15,2013-07-19 12:13:00,
2013-07-19 07:18:00,76.4,70.5,29.80,SSW,202,6.0,9.0,82,0.00,,,0.00,Wunderground v.1.15,2013-07-19 12:18:00,
2013-07-19 07:23:00,76.6,70.3,29.80,SW,217,8.0,9.0,81,0.00,,,0.00,Wunderground v.1.15,2013-07-19 12:23:00,
2013-07-19 07:28:00,77.0,70.4,29.80,SW,227,8.0,11.0,80,0.00,,,0.00,Wunderground v.1.15,2013-07-19 12:28:00,
2013-07-19 07:33:00,77.4,70.4,29.80,WSW,242,6.0,10.0,79,0.00,,,0.00,Wunderground v.1.15,2013-07-19 12:33:00,
2013-07-19 07:38:00,77.9,70.5,29.80,SW,236,9.0,10.0,78,0.00,,,0.00,Wunderground v.1.15,2013-07-19 12:38:00,
2013-07-19 07:43:00,78.3,70.5,29.80,SW,227,6.0,10.0,77,0.00,,,0.00,Wunderground v.1.15,2013-07-19 12:43:00,
2013-07-19 07:48:00,78.7,70.5,29.80,SW,232,6.0,11.0,76,0.00,,,0.00,Wunderground v.1.15,2013-07-19 12:48:00,
2013-07-19 07:53:00,79.1,70.9,29.79,SW,232,5.0,10.0,76,0.00,,,0.00,Wunderground v.1.15,2013-07-19 12:53:00,
2013-07-19 07:58:00,79.5,70.5,29.79,SSW,210,9.0,12.0,74,0.00,,,0.00,Wunderground v.1.15,2013-07-19 12:58:00,
2013-07-19 08:03:00,79.9,70.9,29.80,WSW,252,9.0,11.0,74,0.00,,,0.00,Wunderground v.1.15,2013-07-19 13:03:00,
2013-07-19 08:08:00,80.0,70.6,29.80,WSW,242,6.0,14.0,73,0.00,,,0.00,Wunderground v.1.15,2013-07-19 13:08:00,
2013-07-19 08:13:00,80.0,70.6,29.81,West,269,5.0,8.0,73,0.00,,,0.00,Wunderground v.1.15,2013-07-19 13:13:00,
2013-07-19 08:18:00,80.0,70.6,29.82,West,266,7.0,8.0,73,0.00,,,0.00,Wunderground v.1.15,2013-07-19 13:18:00,
2013-07-19 08:24:00,79.9,70.5,29.83,West,276,6.0,9.0,73,0.00,,,0.00,Wunderground v.1.15,2013-07-19 13:24:00,
2013-07-19 08:26:00,79.8,70.4,29.83,WNW,288,3.0,9.0,73,0.00,,,0.00,Wunderground v.1.15,2013-07-19 13:26:00,
2013-07-19 08:32:00,79.6,70.6,29.83,West,269,5.0,6.0,74,0.00,,,0.00,Wunderground v.1.15,2013-07-19 13:32:00,
2013-07-19 08:37:00,79.5,70.5,29.83,West,267,4.0,10.0,74,0.00,,,0.00,Wunderground v.1.15,2013-07-19 13:37:00,
2013-07-19 08:42:00,79.4,70.4,29.83,West,268,5.0,6.0,74,0.00,,,0.00,Wunderground v.1.15,2013-07-19 13:42:00,
2013-07-19 08:47:00,79.4,70.8,29.83,West,265,6.0,8.0,75,0.00,,,0.00,Wunderground v.1.15,2013-07-19 13:47:00,
2013-07-19 08:52:00,79.4,70.8,29.83,WSW,250,7.0,7.0,75,0.00,,,0.00,Wunderground v.1.15,2013-07-19 13:52:00,
2013-07-19 08:57:00,79.5,70.9,29.83,West,261,8.0,9.0,75,0.00,,,0.00,Wunderground v.1.15,2013-07-19 13:57:00,
2013-07-19 09:02:00,79.7,70.7,29.83,WSW,240,7.0,7.0,74,0.00,,,0.00,Wunderground v.1.15,2013-07-19 14:02:00,
2013-07-19 09:08:00,79.8,71.2,29.83,WSW,244,7.0,9.0,75,0.00,,,0.00,Wunderground v.1.15,2013-07-19 14:08:00,
2013-07-19 09:13:00,80.2,71.6,29.83,WSW,246,11.0,12.0,75,0.00,,,0.00,Wunderground v.1.15,2013-07-19 14:13:00,
2013-07-19 09:18:00,80.9,71.4,29.83,West,271,8.0,12.0,73,0.00,,,0.00,Wunderground v.1.15,2013-07-19 14:18:00,
2013-07-19 09:23:00,80.8,70.9,29.83,SSW,209,5.0,13.0,72,0.00,,,0.00,Wunderground v.1.15,2013-07-19 14:23:00,
2013-07-19 09:28:00,81.0,71.1,29.82,SW,232,9.0,14.0,72,0.00,,,0.00,Wunderground v.1.15,2013-07-19 14:28:00,
2013-07-19 09:33:00,81.7,71.8,29.82,WSW,242,9.0,10.0,72,0.00,,,0.00,Wunderground v.1.15,2013-07-19 14:33:00,
2013-07-19 09:38:00,82.2,71.4,29.82,WSW,242,13.0,17.0,70,0.00,,,0.00,Wunderground v.1.15,2013-07-19 14:38:00,
2013-07-19 09:43:00,82.7,72.3,29.82,WSW,248,10.0,12.0,71,0.00,,,0.00,Wunderground v.1.15,2013-07-19 14:43:00,
2013-07-19 09:48:00,82.9,71.7,29.81,WSW,258,5.0,13.0,69,0.00,,,0.00,Wunderground v.1.15,2013-07-19 14:48:00,
2013-07-19 09:53:00,82.9,72.1,29.81,SW,226,7.0,12.0,70,0.00,,,0.00,Wunderground v.1.15,2013-07-19 14:53:00,
2013-07-19 09:58:00,82.6,71.8,29.81,WSW,246,10.0,13.0,70,0.00,,,0.00,Wunderground v.1.15,2013-07-19 14:58:00,
2013-07-19 10:03:00,82.5,71.7,29.81,WSW,246,8.0,10.0,70,0.00,,,0.00,Wunderground v.1.15,2013-07-19 15:03:00,
2013-07-19 10:08:00,82.9,72.9,29.81,WSW,244,10.0,12.0,72,0.00,,,0.00,Wunderground v.1.15,2013-07-19 15:08:00,
2013-07-19 10:13:00,82.8,71.2,29.81,SW,236,7.0,14.0,68,0.00,,,0.00,Wunderground v.1.15,2013-07-19 15:13:00,
2013-07-19 10:18:00,82.4,72.0,29.81,West,269,8.0,14.0,71,0.00,,,0.00,Wunderground v.1.15,2013-07-19 15:18:00,
2013-07-19 10:23:00,81.9,72.0,29.81,WSW,251,12.0,13.0,72,0.00,,,0.00,Wunderground v.1.15,2013-07-19 15:23:00,
2013-07-19 10:28:00,81.3,71.4,29.81,West,261,5.0,13.0,72,0.00,,,0.00,Wunderground v.1.15,2013-07-19 15:28:00,
2013-07-19 10:33:00,80.7,72.4,29.81,West,260,7.0,8.0,76,0.00,,,0.00,Wunderground v.1.15,2013-07-19 15:33:00,
2013-07-19 10:38:00,80.4,72.5,29.81,WSW,250,9.0,10.0,77,0.00,,,0.00,Wunderground v.1.15,2013-07-19 15:38:00,
2013-07-19 10:43:00,80.5,73.0,29.80,WSW,239,5.0,8.0,78,0.00,,,0.00,Wunderground v.1.15,2013-07-19 15:43:00,
2013-07-19 10:48:00,81.0,73.1,29.80,WSW,253,9.0,11.0,77,0.00,,,0.00,Wunderground v.1.15,2013-07-19 15:48:00,
2013-07-19 10:53:00,81.4,73.1,29.80,SW,233,6.0,10.0,76,0.00,,,0.00,Wunderground v.1.15,2013-07-19 15:53:00,
2013-07-19 10:58:00,81.7,73.4,29.80,WSW,247,6.0,10.0,76,0.00,,,0.00,Wunderground v.1.15,2013-07-19 15:58:00,
2013-07-19 11:03:00,81.3,73.0,29.80,SW,236,8.0,11.0,76,0.00,,,0.00,Wunderground v.1.15,2013-07-19 16:03:00,
2013-07-19 11:08:00,80.6,73.1,29.80,SW,229,9.0,13.0,78,0.00,,,0.00,Wunderground v.1.15,2013-07-19 16:08:00,
2013-07-19 11:13:00,80.6,73.1,29.80,SW,218,6.0,10.0,78,0.00,,,0.00,Wunderground v.1.15,2013-07-19 16:13:00,
2013-07-19 11:18:00,81.2,73.3,29.80,WSW,245,9.0,14.0,77,0.00,,,0.00,Wunderground v.1.15,2013-07-19 16:18:00,
2013-07-19 11:23:00,81.4,72.7,29.80,SW,223,7.0,12.0,75,0.00,,,0.00,Wunderground v.1.15,2013-07-19 16:23:00,
2013-07-19 11:28:00,81.2,72.9,29.80,SW,227,6.0,13.0,76,0.00,,,0.00,Wunderground v.1.15,2013-07-19 16:28:00,
2013-07-19 11:34:00,81.4,73.9,29.80,WSW,244,5.0,9.0,78,0.00,,,0.00,Wunderground v.1.15,2013-07-19 16:34:00,
2013-07-19 11:39:00,82.5,73.4,29.80,SW,232,6.0,12.0,74,0.00,,,0.00,Wunderground v.1.15,2013-07-19 16:39:00,
2013-07-19 11:44:00,83.3,74.1,29.80,WSW,248,9.0,10.0,74,0.00,,,0.00,Wunderground v.1.15,2013-07-19 16:44:00,
2013-07-19 11:49:00,84.2,74.2,29.80,West,275,12.0,12.0,72,0.00,,,0.00,Wunderground v.1.15,2013-07-19 16:49:00,
2013-07-19 11:54:00,84.7,74.7,29.80,WSW,254,5.0,11.0,72,0.00,,,0.00,Wunderground v.1.15,2013-07-19 16:54:00,
2013-07-19 11:59:00,85.3,74.4,29.80,West,271,8.0,12.0,70,0.00,,,0.00,Wunderground v.1.15,2013-07-19 16:59:00,
2013-07-19 12:04:00,85.6,74.3,29.80,West,259,8.0,12.0,69,0.00,,,0.00,Wunderground v.1.15,2013-07-19 17:04:00,
2013-07-19 12:09:00,85.8,74.0,29.80,WSW,242,10.0,12.0,68,0.00,,,0.00,Wunderground v.1.15,2013-07-19 17:09:00,
2013-07-19 12:14:00,85.6,73.8,29.80,WSW,246,8.0,12.0,68,0.00,,,0.00,Wunderground v.1.15,2013-07-19 17:14:00,
2013-07-19 12:19:00,85.3,73.5,29.79,WSW,257,7.0,12.0,68,0.00,,,0.00,Wunderground v.1.15,2013-07-19 17:19:00,
2013-07-19 12:24:00,85.2,74.3,29.79,West,279,7.0,9.0,70,0.00,,,0.00,Wunderground v.1.15,2013-07-19 17:24:00,
2013-07-19 12:29:00,85.8,73.6,29.79,SW,222,9.0,11.0,67,0.00,,,0.00,Wunderground v.1.15,2013-07-19 17:29:00,
2013-07-19 12:34:00,86.6,74.8,29.78,West,266,11.0,12.0,68,0.00,,,0.00,Wunderground v.1.15,2013-07-19 17:34:00,
2013-07-19 12:39:00,86.7,74.0,29.78,WSW,250,4.0,12.0,66,0.00,,,0.00,Wunderground v.1.15,2013-07-19 17:39:00,
2013-07-19 12:44:00,86.7,74.0,29.78,West,264,8.0,10.0,66,0.00,,,0.00,Wunderground v.1.15,2013-07-19 17:44:00,
2013-07-19 12:49:00,86.5,74.2,29.78,WNW,302,6.0,12.0,67,0.00,,,0.00,Wunderground v.1.15,2013-07-19 17:49:00,
2013-07-19 12:54:00,86.6,74.8,29.78,WNW,284,6.0,10.0,68,0.00,,,0.00,Wunderground v.1.15,2013-07-19 17:54:00,
2013-07-19 12:59:00,87.0,74.7,29.78,WSW,258,11.0,13.0,67,0.00,,,0.00,Wunderground v.1.15,2013-07-19 17:59:00,
2013-07-19 13:04:00,87.6,76.2,29.78,WSW,254,9.0,9.0,69,0.00,,,0.00,Wunderground v.1.15,2013-07-19 18:04:00,
2013-07-19 13:09:00,88.0,74.3,29.78,West,262,8.0,12.0,64,0.00,,,0.00,Wunderground v.1.15,2013-07-19 18:09:00,
2013-07-19 13:14:00,87.4,73.7,29.78,WSW,252,11.0,13.0,64,0.00,,,0.00,Wunderground v.1.15,2013-07-19 18:14:00,
2013-07-19 13:19:00,87.1,74.8,29.78,West,271,6.0,13.0,67,0.00,,,0.00,Wunderground v.1.15,2013-07-19 18:19:00,
2013-07-19 13:24:00,87.5,74.7,29.77,WNW,282,9.0,13.0,66,0.00,,,0.00,Wunderground v.1.15,2013-07-19 18:24:00,
2013-07-19 13:29:00,87.7,74.9,29.77,WSW,249,8.0,13.0,66,0.00,,,0.00,Wunderground v.1.15,2013-07-19 18:29:00,
2013-07-19 13:34:00,87.8,74.6,29.77,West,265,11.0,12.0,65,0.00,,,0.00,Wunderground v.1.15,2013-07-19 18:34:00,
2013-07-19 13:39:00,87.9,74.2,29.77,West,281,7.0,13.0,64,0.00,,,0.00,Wunderground v.1.15,2013-07-19 18:39:00,
2013-07-19 13:44:00,88.1,74.4,29.77,WSW,244,5.0,12.0,64,0.00,,,0.00,Wunderground v.1.15,2013-07-19 18:44:00,
2013-07-19 13:49:00,88.3,76.4,29.77,WNW,284,6.0,13.0,68,0.00,,,0.00,Wunderground v.1.15,2013-07-19 18:49:00,
2013-07-19 13:54:00,88.6,75.3,29.77,SW,225,8.0,10.0,65,0.00,,,0.00,Wunderground v.1.15,2013-07-19 18:54:00,
2013-07-19 13:59:00,88.2,75.4,29.77,WSW,248,8.0,13.0,66,0.00,,,0.00,Wunderground v.1.15,2013-07-19 18:59:00,
2013-07-19 14:04:00,88.3,75.9,29.77,WNW,292,9.0,12.0,67,0.00,,,0.00,Wunderground v.1.15,2013-07-19 19:04:00,
2013-07-19 14:09:00,88.9,76.1,29.77,West,265,13.0,13.0,66,0.00,,,0.00,Wunderground v.1.15,2013-07-19 19:09:00,
2013-07-19 14:14:00,89.2,75.4,29.77,West,263,7.0,12.0,64,0.00,,,0.00,Wunderground v.1.15,2013-07-19 19:14:00,
2013-07-19 14:19:00,89.2,75.0,29.77,West,266,11.0,15.0,63,0.00,,,0.00,Wunderground v.1.15,2013-07-19 19:19:00,
2013-07-19 14:24:00,88.7,75.0,29.77,West,271,14.0,14.0,64,0.00,,,0.00,Wunderground v.1.15,2013-07-19 19:24:00,
2013-07-19 14:29:00,88.9,75.1,29.77,West,277,9.0,14.0,64,0.00,,,0.00,Wunderground v.1.15,2013-07-19 19:29:00,
2013-07-19 14:34:00,88.9,76.5,29.76,WSW,254,8.0,12.0,67,0.00,,,0.00,Wunderground v.1.15,2013-07-19 19:34:00,
2013-07-19 14:39:00,89.2,75.4,29.77,WSW,237,11.0,15.0,64,0.00,,,0.00,Wunderground v.1.15,2013-07-19 19:39:00,
2013-07-19 14:44:00,88.9,75.1,29.76,West,281,12.0,12.0,64,0.00,,,0.00,Wunderground v.1.15,2013-07-19 19:44:00,
2013-07-19 14:49:00,88.9,75.1,29.76,West,269,13.0,15.0,64,0.00,,,0.00,Wunderground v.1.15,2013-07-19 19:49:00,
2013-07-19 14:54:00,88.8,74.6,29.76,WSW,252,9.0,14.0,63,0.00,,,0.00,Wunderground v.1.15,2013-07-19 19:54:00,
2013-07-19 14:59:00,88.9,75.1,29.76,WSW,253,15.0,15.0,64,0.00,,,0.00,Wunderground v.1.15,2013-07-19 19:59:00,
2013-07-19 15:04:00,89.1,74.4,29.76,West,259,8.0,13.0,62,0.00,,,0.00,Wunderground v.1.15,2013-07-19 20:04:00,
2013-07-19 15:09:00,89.2,75.4,29.76,West,267,9.0,11.0,64,0.00,,,0.00,Wunderground v.1.15,2013-07-19 20:09:00,
2013-07-19 15:14:00,89.2,75.0,29.76,WNW,300,7.0,13.0,63,0.00,,,0.00,Wunderground v.1.15,2013-07-19 20:14:00,
2013-07-19 15:19:00,89.2,74.5,29.76,WSW,244,4.0,14.0,62,0.00,,,0.00,Wunderground v.1.15,2013-07-19 20:19:00,
2013-07-19 15:24:00,89.2,75.0,29.76,SW,232,6.0,11.0,63,0.00,,,0.00,Wunderground v.1.15,2013-07-19 20:24:00,
2013-07-19 15:29:00,89.7,75.9,29.76,West,279,6.0,13.0,64,0.00,,,0.00,Wunderground v.1.15,2013-07-19 20:29:00,
2013-07-19 15:34:00,89.8,76.5,29.76,WSW,242,6.0,13.0,65,0.00,,,0.00,Wunderground v.1.15,2013-07-19 20:34:00,
2013-07-19 15:39:00,90.0,76.2,29.75,West,261,7.0,13.0,64,0.00,,,0.00,Wunderground v.1.15,2013-07-19 20:39:00,
2013-07-19 15:44:00,89.9,76.6,29.75,SW,214,9.0,13.0,65,0.00,,,0.00,Wunderground v.1.15,2013-07-19 20:44:00,
2013-07-19 15:49:00,89.3,74.6,29.75,West,270,7.0,15.0,62,0.00,,,0.00,Wunderground v.1.15,2013-07-19 20:49:00,
2013-07-19 15:54:00,88.9,74.7,29.75,WSW,252,5.0,12.0,63,0.00,,,0.00,Wunderground v.1.15,2013-07-19 20:54:00,
2013-07-19 15:59:00,89.0,75.2,29.75,West,262,6.0,12.0,64,0.00,,,0.00,Wunderground v.1.15,2013-07-19 20:59:00,
2013-07-19 16:04:00,89.0,75.2,29.75,West,267,9.0,10.0,64,0.00,,,0.00,Wunderground v.1.15,2013-07-19 21:04:00,
2013-07-19 16:09:00,89.3,76.0,29.75,West,269,10.0,10.0,65,0.00,,,0.00,Wunderground v.1.15,2013-07-19 21:09:00,
2013-07-19 16:14:00,89.6,74.9,29.75,WNW,291,11.0,15.0,62,0.00,,,0.00,Wunderground v.1.15,2013-07-19 21:14:00,
2013-07-19 16:19:00,89.7,74.5,29.75,West,273,12.0,15.0,61,0.00,,,0.00,Wunderground v.1.15,2013-07-19 21:19:00,
2013-07-19 16:24:00,89.5,74.8,29.75,WNW,298,8.0,12.0,62,0.00,,,0.00,Wunderground v.1.15,2013-07-19 21:24:00,
2013-07-19 16:29:00,89.8,75.0,29.75,West,272,8.0,13.0,62,0.00,,,0.00,Wunderground v.1.15,2013-07-19 21:29:00,
2013-07-19 16:34:00,90.0,75.2,29.75,WSW,258,8.0,12.0,62,0.00,,,0.00,Wunderground v.1.15,2013-07-19 21:34:00,
2013-07-19 16:39:00,89.7,74.5,29.75,NW,305,6.0,12.0,61,0.00,,,0.00,Wunderground v.1.15,2013-07-19 21:39:00,
2013-07-19 16:44:00,88.8,73.6,29.75,WNW,303,6.0,8.0,61,0.00,,,0.00,Wunderground v.1.15,2013-07-19 21:44:00,
2013-07-19 16:49:00,88.7,71.5,29.74,NW,307,9.0,12.0,57,0.00,,,0.00,Wunderground v.1.15,2013-07-19 21:49:00,
2013-07-19 16:54:00,89.2,73.0,29.74,WNW,302,5.0,9.0,59,0.00,,,0.00,Wunderground v.1.15,2013-07-19 21:54:00,
2013-07-19 16:59:00,89.4,73.2,29.74,WNW,293,6.0,12.0,59,0.00,,,0.00,Wunderground v.1.15,2013-07-19 21:59:00,
2013-07-19 17:04:00,89.5,72.8,29.74,NW,309,7.0,10.0,58,0.00,,,0.00,Wunderground v.1.15,2013-07-19 22:04:00,
2013-07-19 17:09:00,89.5,74.3,29.74,NW,308,9.0,10.0,61,0.00,,,0.00,Wunderground v.1.15,2013-07-19 22:09:00,
2013-07-19 17:14:00,89.7,74.0,29.74,WNW,284,7.0,7.0,60,0.00,,,0.00,Wunderground v.1.15,2013-07-19 22:14:00,
2013-07-19 17:19:00,89.7,73.0,29.74,NW,304,4.0,10.0,58,0.00,,,0.00,Wunderground v.1.15,2013-07-19 22:19:00,
2013-07-19 17:24:00,89.6,71.3,29.74,WNW,298,5.0,11.0,55,0.00,,,0.00,Wunderground v.1.15,2013-07-19 22:24:00,
2013-07-19 17:29:00,89.5,72.3,29.74,NW,304,8.0,12.0,57,0.00,,,0.00,Wunderground v.1.15,2013-07-19 22:29:00,
2013-07-19 17:34:00,89.4,71.6,29.74,NW,310,6.0,9.0,56,0.00,,,0.00,Wunderground v.1.15,2013-07-19 22:34:00,
2013-07-19 17:39:00,89.3,72.1,29.74,WNW,294,5.0,11.0,57,0.00,,,0.00,Wunderground v.1.15,2013-07-19 22:39:00,
2013-07-19 17:44:00,89.4,72.7,29.74,NW,311,5.0,8.0,58,0.00,,,0.00,Wunderground v.1.15,2013-07-19 22:44:00,
2013-07-19 17:49:00,89.4,72.7,29.73,WNW,290,6.0,9.0,58,0.00,,,0.00,Wunderground v.1.15,2013-07-19 22:49:00,
2013-07-19 17:54:00,89.4,73.2,29.73,WSW,249,3.0,7.0,59,0.00,,,0.00,Wunderground v.1.15,2013-07-19 22:54:00,
2013-07-19 17:59:00,89.5,74.3,29.73,WNW,287,5.0,7.0,61,0.00,,,0.00,Wunderground v.1.15,2013-07-19 22:59:00,
2013-07-19 18:04:00,89.5,73.8,29.73,WNW,286,6.0,7.0,60,0.00,,,0.00,Wunderground v.1.15,2013-07-19 23:04:00,
2013-07-19 18:09:00,89.4,72.7,29.73,West,275,6.0,7.0,58,0.00,,,0.00,Wunderground v.1.15,2013-07-19 23:09:00,
2013-07-19 18:14:00,89.1,73.9,29.73,WNW,296,4.0,6.0,61,0.00,,,0.00,Wunderground v.1.15,2013-07-19 23:14:00,
2013-07-19 18:19:00,88.4,73.7,29.73,NNW,341,6.0,10.0,62,0.00,,,0.00,Wunderground v.1.15,2013-07-19 23:19:00,
2013-07-19 18:24:00,87.8,72.7,29.73,NNW,340,10.0,13.0,61,0.00,,,0.00,Wunderground v.1.15,2013-07-19 23:24:00,
2013-07-19 18:29:00,87.5,72.9,29.73,NNW,346,6.0,13.0,62,0.00,,,0.00,Wunderground v.1.15,2013-07-19 23:29:00,
2013-07-19 18:34:00,87.1,72.5,29.74,NW,326,6.0,11.0,62,0.00,,,0.00,Wunderground v.1.15,2013-07-19 23:34:00,
2013-07-19 18:39:00,86.8,71.7,29.74,North,360,9.0,12.0,61,0.00,,,0.00,Wunderground v.1.15,2013-07-19 23:39:00,
2013-07-19 18:44:00,86.4,71.4,29.74,NW,321,9.0,13.0,61,0.00,,,0.00,Wunderground v.1.15,2013-07-19 23:44:00,
2013-07-19 18:50:00,86.2,70.7,29.74,NNW,331,8.0,13.0,60,0.00,,,0.00,Wunderground v.1.15,2013-07-19 23:50:00,
2013-07-19 18:55:00,85.9,70.4,29.74,NNW,342,6.0,11.0,60,0.00,,,0.00,Wunderground v.1.15,2013-07-19 23:55:00,
2013-07-19 19:00:00,85.7,70.2,29.74,NNW,338,6.0,8.0,60,0.00,,,0.00,Wunderground v.1.15,2013-07-20 00:00:00,
2013-07-19 19:05:00,85.5,70.0,29.74,NNW,342,6.0,11.0,60,0.00,,,0.00,Wunderground v.1.15,2013-07-20 00:05:00,
2013-07-19 19:10:00,85.3,70.8,29.75,North,355,6.0,8.0,62,0.00,,,0.00,Wunderground v.1.15,2013-07-20 00:10:00,
2013-07-19 19:15:00,85.1,70.6,29.75,NNW,348,7.0,10.0,62,0.00,,,0.00,Wunderground v.1.15,2013-07-20 00:15:00,
2013-07-19 19:20:00,84.8,70.3,29.75,NNW,342,5.0,10.0,62,0.00,,,0.00,Wunderground v.1.15,2013-07-20 00:20:00,
2013-07-19 19:25:00,84.6,70.1,29.75,NNW,346,5.0,7.0,62,0.00,,,0.00,Wunderground v.1.15,2013-07-20 00:25:00,
2013-07-19 19:30:00,84.2,69.8,29.75,North,355,5.0,9.0,62,0.00,,,0.00,Wunderground v.1.15,2013-07-20 00:30:00,
2013-07-19 19:35:00,83.9,69.5,29.75,NNW,348,4.0,6.0,62,0.00,,,0.00,Wunderground v.1.15,2013-07-20 00:35:00,
2013-07-19 19:40:00,83.6,70.1,29.75,North,355,3.0,6.0,64,0.00,,,0.00,Wunderground v.1.15,2013-07-20 00:40:00,
2013-07-19 19:45:00,83.2,70.2,29.75,North,355,3.0,5.0,65,0.00,,,0.00,Wunderground v.1.15,2013-07-20 00:45:00,
2013-07-19 19:50:00,82.9,70.4,29.75,North,360,3.0,5.0,66,0.00,,,0.00,Wunderground v.1.15,2013-07-20 00:50:00,
2013-07-19 19:55:00,82.6,70.1,29.75,North,350,5.0,6.0,66,0.00,,,0.00,Wunderground v.1.15,2013-07-20 00:55:00,
2013-07-19 20:02:00,82.1,70.1,29.75,NNW,348,3.0,3.0,67,0.00,,,0.00,Wunderground v.1.15,2013-07-20 01:02:00,
2013-07-19 20:07:00,81.7,70.1,29.75,North,355,3.0,5.0,68,0.00,,,0.00,Wunderground v.1.15,2013-07-20 01:07:00,
2013-07-19 20:12:00,81.2,70.5,29.75,North,351,3.0,4.0,70,0.00,,,0.00,Wunderground v.1.15,2013-07-20 01:12:00,
2013-07-19 20:17:00,80.6,70.3,29.75,North,355,4.0,5.0,71,0.00,,,0.00,Wunderground v.1.15,2013-07-20 01:17:00,
2013-07-19 20:23:00,80.2,69.5,29.75,North,355,4.0,4.0,70,0.00,,,0.00,Wunderground v.1.15,2013-07-20 01:23:00,
2013-07-19 20:28:00,80.0,69.3,29.76,NNW,340,5.0,7.0,70,0.00,,,0.00,Wunderground v.1.15,2013-07-20 01:28:00,
2013-07-19 20:33:00,79.8,69.1,29.76,NNW,340,4.0,5.0,70,0.00,,,0.00,Wunderground v.1.15,2013-07-20 01:33:00,
2013-07-19 20:38:00,79.5,68.9,29.76,NNW,330,7.0,7.0,70,0.00,,,0.00,Wunderground v.1.15,2013-07-20 01:38:00,
2013-07-19 20:43:00,79.1,68.1,29.76,NNW,339,3.0,7.0,69,0.00,,,0.00,Wunderground v.1.15,2013-07-20 01:43:00,
2013-07-19 20:48:00,78.7,67.7,29.76,NNW,345,7.0,9.0,69,0.00,,,0.00,Wunderground v.1.15,2013-07-20 01:48:00,
2013-07-19 20:53:00,78.3,67.3,29.76,NNW,340,5.0,6.0,69,0.00,,,0.00,Wunderground v.1.15,2013-07-20 01:53:00,
2013-07-19 20:58:00,77.8,66.8,29.76,NNW,344,4.0,6.0,69,0.00,,,0.00,Wunderground v.1.15,2013-07-20 01:58:00,
2013-07-19 21:07:00,77.1,66.6,29.77,North,350,3.0,3.0,70,0.00,,,0.00,Wunderground v.1.15,2013-07-20 02:07:00,
2013-07-19 21:12:00,76.6,66.5,29.77,North,355,3.0,3.0,71,0.00,,,0.00,Wunderground v.1.15,2013-07-20 02:12:00,
2013-07-19 21:17:00,76.0,66.7,29.78,North,350,2.0,4.0,73,0.00,,,0.00,Wunderground v.1.15,2013-07-20 02:17:00,
2013-07-19 21:22:00,75.4,66.9,29.78,NNW,340,2.0,2.0,75,0.00,,,0.00,Wunderground v.1.15,2013-07-20 02:22:00,
2013-07-19 21:27:00,75.0,66.5,29.78,NNW,340,1.0,3.0,75,0.00,,,0.00,Wunderground v.1.15,2013-07-20 02:27:00,
2013-07-19 21:32:00,74.7,66.6,29.78,NNW,336,2.0,2.0,76,0.00,,,0.00,Wunderground v.1.15,2013-07-20 02:32:00,
2013-07-19 21:37:00,74.4,66.7,29.79,NNW,339,2.0,3.0,77,0.00,,,0.00,Wunderground v.1.15,2013-07-20 02:37:00,
2013-07-19 21:42:00,74.1,66.4,29.79,NNW,345,3.0,3.0,77,0.00,,,0.00,Wunderground v.1.15,2013-07-20 02:42:00,
2013-07-19 21:48:00,73.8,66.5,29.79,North,350,3.0,4.0,78,0.00,,,0.00,Wunderground v.1.15,2013-07-20 02:48:00,
2013-07-19 21:53:00,73.4,66.1,29.79,North,349,3.0,3.0,78,0.00,,,0.00,Wunderground v.1.15,2013-07-20 02:53:00,
2013-07-19 21:58:00,73.0,65.7,29.80,North,351,3.0,4.0,78,0.00,,,0.00,Wunderground v.1.15,2013-07-20 02:58:00,
2013-07-19 22:03:00,72.6,65.7,29.80,NNW,344,3.0,3.0,79,0.00,,,0.00,Wunderground v.1.15,2013-07-20 03:03:00,
2013-07-19 22:08:00,72.3,65.4,29.80,North,355,3.0,4.0,79,0.00,,,0.00,Wunderground v.1.15,2013-07-20 03:08:00,
2013-07-19 22:13:00,72.1,65.6,29.80,NNW,347,3.0,4.0,80,0.00,,,0.00,Wunderground v.1.15,2013-07-20 03:13:00,
2013-07-19 22:18:00,71.8,65.3,29.80,North,350,3.0,4.0,80,0.00,,,0.00,Wunderground v.1.15,2013-07-20 03:18:00,
2013-07-19 22:23:00,71.5,65.4,29.81,NNW,348,3.0,3.0,81,0.00,,,0.00,Wunderground v.1.15,2013-07-20 03:23:00,
2013-07-19 22:28:00,71.3,65.2,29.81,NNW,346,3.0,4.0,81,0.00,,,0.00,Wunderground v.1.15,2013-07-20 03:28:00,
2013-07-19 22:33:00,71.0,65.2,29.81,NNW,348,3.0,3.0,82,0.00,,,0.00,Wunderground v.1.15,2013-07-20 03:33:00,
2013-07-19 22:38:00,70.8,65.0,29.81,North,355,3.0,3.0,82,0.00,,,0.00,Wunderground v.1.15,2013-07-20 03:38:00,
2013-07-19 22:43:00,70.6,65.2,29.81,North,355,3.0,3.0,83,0.00,,,0.00,Wunderground v.1.15,2013-07-20 03:43:00,
2013-07-19 22:48:00,70.4,65.0,29.81,NNW,348,2.0,4.0,83,0.00,,,0.00,Wunderground v.1.15,2013-07-20 03:48:00,
2013-07-19 22:53:00,70.3,64.9,29.81,NNW,344,3.0,3.0,83,0.00,,,0.00,Wunderground v.1.15,2013-07-20 03:53:00,
2013-07-19 22:58:00,70.2,65.1,29.81,North,360,2.0,4.0,84,0.00,,,0.00,Wunderground v.1.15,2013-07-20 03:58:00,
2013-07-19 23:01:00,70.2,65.1,29.81,North,5,3.0,3.0,84,0.00,,,0.00,Wunderground v.1.15,2013-07-20 04:01:00,
2013-07-19 23:02:00,70.1,65.0,29.81,North,360,2.0,2.0,84,0.00,,,0.00,Wunderground v.1.15,2013-07-20 04:02:00,
2013-07-19 23:03:00,70.1,65.0,29.81,North,360,2.0,3.0,84,0.00,,,0.00,Wunderground v.1.15,2013-07-20 04:03:00,
2013-07-19 23:08:00,69.9,64.8,29.81,North,5,2.0,4.0,84,0.00,,,0.00,Wunderground v.1.15,2013-07-20 04:08:00,
2013-07-19 23:13:00,69.7,64.6,29.81,North,11,2.0,3.0,84,0.00,,,0.00,Wunderground v.1.15,2013-07-20 04:13:00,
2013-07-19 23:18:00,69.6,64.9,29.81,NNE,13,2.0,4.0,85,0.00,,,0.00,Wunderground v.1.15,2013-07-20 04:18:00,
2013-07-19 23:23:00,69.4,64.7,29.82,NNE,14,3.0,3.0,85,0.00,,,0.00,Wunderground v.1.15,2013-07-20 04:23:00,
2013-07-19 23:28:00,69.3,64.6,29.82,NNE,16,2.0,3.0,85,0.00,,,0.00,Wunderground v.1.15,2013-07-20 04:28:00,
2013-07-19 23:33:00,69.1,64.4,29.82,NNE,16,2.0,3.0,85,0.00,,,0.00,Wunderground v.1.15,2013-07-20 04:33:00,
2013-07-19 23:38:00,68.8,64.4,29.82,NNE,16,2.0,3.0,86,0.00,,,0.00,Wunderground v.1.15,2013-07-20 04:38:00,
2013-07-19 23:43:00,68.5,64.1,29.82,NNE,16,2.0,3.0,86,0.00,,,0.00,Wunderground v.1.15,2013-07-20 04:43:00,
2013-07-19 23:48:00,68.3,64.3,29.82,NNE,16,3.0,3.0,87,0.00,,,0.00,Wunderground v.1.15,2013-07-20 04:48:00,
2013-07-19 23:53:00,68.1,64.1,29.82,NNE,16,1.0,2.0,87,0.00,,,0.00,Wunderground v.1.15,2013-07-20 04:53:00,